THOR ABLESTAR DEB, 545

Orbit data source: Space-Track

THOR ABLESTAR DEB, 545 is space debris in LEO originally from a launch on Thu, 29 Jun 1961 UTC launched from the Air Force Eastern Test Range (AFETR). Debris objects in space refer to the collection of defunct objects orbiting the Earth. Examples of debris include non-operational satellites, rocket bodies, and fragments generated from explosions, collisions, or faulty payload assembly.

Loading next visibility...
Identifier
545, 1961-015GE
Orbit
LEO
Country
Flag of USUS
Related business
Manufacturer
Unknown
Mission
Spacecraft
Bus & Motor
Unknown
Mass
Unknown
Launch date (UTC)
1961-06-29 (64 years ago)
Launch vehicle
Unknown
Launch site
Air Force Eastern Test Range (AFETR)
Object type
Payload
Rocket body
Debris
Shape & HBR
Unknown
Radar Cross Section
Small (<0.1 m²)

Expand to show TLE details & history
Last TLE update: 1 day ago

TLE from 1 day ago
0 THOR ABLESTAR DEB
1 00545U 61015GE  25242.37482774  .00000564  00000-0  64610-3 0  9999
2 00545  67.2297 229.3990 0165750 267.3525  90.8565 13.70801177190421
Epoch: 2025-08-30T08:59Z
TLE epoch observation values (Epoch: 2025-08-30T08:59:45.116Z)
Latitude
-0.00003°
Longitude
115.65097°
Altitude
1,002.637 km
Speed
7.349 km/s
True Right ascension
15h 17m 35s
True Declination
0° 00' 00"
Sunlit
Object was in daylight at epoch
Visualization orbit readout
Latitude
Unknown
Longitude
Unknown
Altitude
Unknown
Speed
Unknown
Apparent Right ascension
Unknown
Apparent Declination
Unknown
Sunlit
N/A
Visualization observer readout
Local Sidereal Time
03:00:51
Azimuth
Unknown
Elevation
Unknown
Doppler factor
Unknown
Orbital elements
Apogee altitude
1,117.267 km
Perigee altitude
872.845 km
Semi-major axis
7,373.193 km
Eccentricity
0.01658
Inclination
67.2297°
RAAN
229.399°
Arg. of periapsis
267.3525°
True anomaly
92.75471°
Mean anomaly
90.8565°
Eccentric anomaly
91.80571°
Mean motion
3.42815 °/min
Orbital period
105.01 mins
BSTAR
0.0006461
Loading maneuver chart data...
Computing Atmospheric mass density...

Documentation

Showing up to 5 results
|